Location: Hilton Head Island
(32.2163°N, 80.7526°W)
Time: 18:55:07
(UTC-05:00)

Transit 2A - Pass Details

Date: 20 February 2026
Orbit: 590 x 954 km, 66.7° (Epoch: 7 March)

Event Time Altitude Azimuth Distance (km) Brightness Sun altitude
Rises 20:45:39 0° 344° (NNW) 3,514 9.7 -32.8°
Reaches altitude 10° 20:48:32 10° 354° (N) 2,520 8.8 -33.4°
Enters shadow 20:49:11 13° 357° (N) 2,312 8.6 -33.5°
